Tracking 29493 objects as of 8-Sep-2024
HD Live streaming from Space Station
objects crossing your sky now

FENGYUN 1C DEB

Track FENGYUN 1C DEB now!
10-day predictions


NORAD ID: 30640
Int'l Code: 1999-025ANX
Perigee: 804.6 km
Apogee: 925.8 km
Inclination: 99.1 °
Period: 102.1 minutes
Semi major axis: 7236 km
RCS: 0.018 m2 (small)
Launch date: May 10, 1999
Source: People's Republic of China (PRC)
Launch site: Taiyaun Space Center, China (TSC)

Note: This is SATELLITE DEBRIS
Your satellite tracking list
Your tracking list is empty




NASA's NSSDC Master Catalog

Two Line Element Set (TLE):
1 30640U 99025ANX 24252.41324255  .00008162  00000-0  44673-2 0  9992
2 30640  99.0959 311.4873 0083738 316.1894 107.4259 14.10388097899458
Source of the keplerian elements: AFSPC